East Quogue, NY

1:40 AM EST on December 04, 2016 (GMT -0500)
The Gabreski

Weather History for KFOK - August, 2013

Change the Weather History Date:

Sunday, August 4, 2013

  Actual Average Record
Temperature  
Mean Temperature 70 °F -  
Max Temperature 82 °F 78 °F 91 °F (1996)
Min Temperature 60 °F 60 °F 53 °F (2016)
Cooling Degree Days 5    
Growing Degree Days 20 (Base 50)    
Moisture  
Dew Point 56 °F    
Average Humidity 67    
Maximum Humidity 97    
Minimum Humidity 39    
Precipitation  
Precipitation 0.00 in - - ()
Sea Level Pressure  
Sea Level Pressure 29.88 in    
Wind  
Wind Speed 4 mph (NW)    
Max Wind Speed 14 mph    
Max Gust Speed 22 mph    
Visibility 8 miles    
Events      
Averages and records for this station are not official NWS values.
T = Trace of Precipitation, MM = Missing Value Source: NWS Daily Summary

Daily Weather History Graph

Daily Weather History Graph

Search for Another Location

Airport or City:

Trip Planner

Search our weather history database for the weather conditions in past years. The results will help you decide how hot, cold, wet, or windy it might be!

Date:

Astronomy

Aug. 04, 2013 Rise Set
Actual Time 5:49 AM EDT 8:02 PM EDT
Civil Twilight 5:19 AM EDT 8:32 PM EDT
Nautical Twilight 4:41 AM EDT 9:10 PM EDT
Astronomical Twilight 4:00 AM EDT 9:51 PM EDT
Moon 3:48 AM EDT 6:23 PM EDT
Length of Visible Light 15h 13m
Length of Day
14h 12m
Waning Crescent, 5% of the Moon is Illuminated
Aug 4
Waning Crescent
Aug 6
New
Aug 14
First Quarter
Aug 20
Full
Aug 28
Last Quarter

Hourly Weather History & Observations

Time (EDT) Temp. Heat Index Dew Point Humidity Pressure Visibility Wind Dir Wind Speed Gust Speed Precip Events Conditions
12:53 AM 62.1 °F - 59.0 °F 90% 29.87 in 6.0 mi Calm Calm - N/A   Scattered Clouds
1:05 AM 62.6 °F - 59.0 °F 88% 29.87 in 2.5 mi Calm Calm - N/A   Mostly Cloudy
1:12 AM 60.8 °F - 57.2 °F 88% 29.87 in 7.0 mi Calm Calm - N/A   Mostly Cloudy
1:46 AM 60.8 °F - 57.2 °F 88% 29.86 in 1.5 mi Calm Calm - N/A   Clear
1:53 AM 60.1 °F - 57.9 °F 93% 29.86 in 1.2 mi Calm Calm - N/A   Clear
1:57 AM 60.8 °F - 57.2 °F 88% 29.86 in 4.0 mi Calm Calm - N/A   Clear
2:53 AM 64.9 °F - 62.1 °F 90% 29.86 in 5.0 mi NNW 6.9 mph - N/A   Scattered Clouds
3:53 AM 64.0 °F - 62.1 °F 93% 29.86 in 7.0 mi North 5.8 mph - N/A   Clear
4:53 AM 61.0 °F - 60.1 °F 97% 29.87 in 7.0 mi North 3.5 mph - N/A   Mostly Cloudy
5:53 AM 61.0 °F - 57.9 °F 90% 29.87 in 10.0 mi Calm Calm - N/A   Scattered Clouds
6:53 AM 64.0 °F - 59.0 °F 84% 29.87 in 10.0 mi North 4.6 mph - N/A   Clear
7:53 AM 70.0 °F - 60.1 °F 71% 29.88 in 10.0 mi NNW 4.6 mph - N/A   Clear
8:53 AM 73.9 °F - 57.0 °F 55% 29.88 in 10.0 mi NNW 5.8 mph - N/A   Scattered Clouds
9:53 AM 75.9 °F - 55.0 °F 48% 29.88 in 10.0 mi North 8.1 mph - N/A   Clear
10:53 AM 77.0 °F - 55.0 °F 47% 29.88 in 10.0 mi North 8.1 mph - N/A   Clear
11:53 AM 79.0 °F - 54.0 °F 42% 29.88 in 10.0 mi WNW 12.7 mph - N/A   Clear
12:53 PM 79.0 °F - 53.1 °F 40% 29.87 in 10.0 mi WNW 10.4 mph 18.4 mph N/A   Partly Cloudy
1:53 PM 80.1 °F 79.9 °F 53.1 °F 39% 29.86 in 10.0 mi WNW 13.8 mph 18.4 mph N/A   Clear
2:53 PM 80.1 °F 79.9 °F 53.1 °F 39% 29.85 in 10.0 mi NNW 10.4 mph 18.4 mph N/A   Partly Cloudy
3:53 PM 80.1 °F 79.9 °F 53.1 °F 39% 29.85 in 10.0 mi WNW 10.4 mph 17.3 mph N/A   Scattered Clouds
4:53 PM 80.1 °F 80.1 °F 55.0 °F 42% 29.84 in 10.0 mi NW 10.4 mph 17.3 mph N/A   Partly Cloudy
5:53 PM 79.0 °F - 53.1 °F 40% 29.84 in 10.0 mi WNW 13.8 mph 21.9 mph N/A   Partly Cloudy
6:53 PM 75.0 °F - 54.0 °F 48% 29.87 in 10.0 mi NW 11.5 mph - N/A   Scattered Clouds
7:53 PM 71.1 °F - 54.0 °F 55% 29.89 in 10.0 mi NW 5.8 mph - N/A   Clear
8:53 PM 66.0 °F - 55.9 °F 70% 29.92 in 10.0 mi WNW 3.5 mph - N/A   Clear
9:53 PM 63.0 °F - 55.0 °F 75% 29.93 in 10.0 mi NW 5.8 mph - N/A   Clear
10:53 PM 63.0 °F - 55.9 °F 78% 29.94 in 10.0 mi NW 5.8 mph - N/A   Clear
11:53 PM 64.0 °F - 55.0 °F 73% 29.95 in 10.0 mi NNW 9.2 mph - N/A   Clear